RH
31 26 25 25 21 17 15 14 13 12 10 9 7 6 5 4 4 3 3 3 4 4 6 9 12 16 22 29 29 29 28 31 38 43 44 39 39 41 41 39 38 37 34 33 31 30 28
28 28 26 24 21 17 15 13 11 11 8 7 5 4 4 3 3 3 3 2 2 2 3 3 7 12 24 26 28 36 33 34 33 42 46 46 41 40 42 41 40 37 36 34 32 31 31
32 30 30 25 20 17 13 12 10 8 6 5 4 4 4 3 3 3 3 2 2 2 2 3 5 10 19 14 19 29 37 34 35 38 47 52 52 46 42 41 40 39 38 35 35 35 34
30 26 22 19 18 17 12 10 8 6 5 4 4 4 4 4 4 3 3 3 2 2 3 6 8 14 17 9 14 19 29 39 33 36 40 46 56 55 51 47 46 46 44 43 38 35 34
26 22 18 16 14 13 11 8 6 6 5 5 5 5 5 5 4 4 4 4 3 4 10 12 12 18 15 10 15 29 37 41 42 33 43 41 51 58 55 53 49 49 46 48 44 39 36
27 23 19 15 12 11 9 8 8 7 6 6 7 7 7 6 5 7 6 6 6 9 17 17 26 27 11 10 16 21 33 45 52 42 42 45 49 52 51 51 49 49 50 46 44 42 40
26 19 15 13 12 12 10 10 11 7 8 8 7 7 7 8 7 8 9 7 13 17 19 22 17 22 13 13 22 23 35 40 57 52 40 49 55 47 47 46 44 45 48 46 45 44 43
22 20 19 17 14 10 9 11 12 11 13 9 9 8 8 9 8 9 14 18 32 39 34 18 12 16 12 11 18 17 33 40 47 64 39 45 46 47 46 47 49 48 48 47 46 45 44
22 18 15 14 11 11 9 9 11 11 10 10 10 10 10 10 8 14 17 24 31 37 44 18 16 25 19 19 23 23 29 39 44 61 61 42 40 40 41 41 41 43 45 46 45 44 43
23 17 16 14 10 10 10 10 11 11 11 10 11 11 11 13 14 16 22 27 30 33 50 25 33 62 48 32 29 26 31 39 43 62 66 63 56 55 48 45 38 38 36 37 41 43 41
24 22 21 14 11 12 10 9 9 9 10 11 12 14 15 16 20 24 30 31 31 40 52 23 43 91 81 61 39 34 37 36 41 54 64 59 58 47 54 41 35 33 32 36 43 46 50
24 22 19 15 16 15 10 12 10 10 10 12 14 16 18 22 24 31 33 31 37 46 47 24 40 83 88 67 52 49 38 36 41 57 55 57 54 50 41 49 42 42 47 55 57 53 50
23 21 20 18 16 12 12 13 10 11 14 14 16 19 24 26 29 30 29 31 46 51 25 36 53 66 88 70 58 52 38 39 44 57 55 50 48 52 51 51 50 45 44 56 51 56 38
23 21 18 18 15 17 14 12 12 12 15 16 18 24 25 30 36 34 34 42 51 33 42 39 47 72 94 78 64 52 36 36 41 44 52 54 56 51 47 44 44 48 45 43 43 52 51
23 22 20 19 17 15 13 13 12 13 17 20 23 23 28 36 41 48 53 58 43 54 64 52 58 85 96 75 73 59 43 36 36 39 44 44 43 40 48 55 54 58 55 49 53 56 53
25 22 20 16 17 15 17 15 12 14 21 26 26 26 32 41 54 59 71 68 53 44 53 69 93 95 97 90 81 73 67 65 51 41 45 35 51 44 46 52 58 51 50 56 59 63 64
26 22 20 19 16 19 18 15 13 20 27 30 29 30 39 50 68 77 88 85 64 48 53 86 95 96 98 96 90 93 89 79 61 53 55 45 48 55 48 47 55 52 52 56 55 59 61
27 23 20 17 15 19 19 15 17 22 31 35 35 38 41 48 64 74 85 77 54 45 42 78 93 98 98 97 97 97 92 87 77 63 60 66 64 67 67 59 52 53 57 55 54 69 67
30 24 19 23 19 20 19 17 20 26 34 38 44 41 40 53 66 71 78 70 60 44 47 67 80 92 98 98 97 98 93 85 82 78 67 72 73 84 85 72 65 63 62 63 65 66 69
32 29 22 27 20 23 19 18 20 28 37 42 48 50 48 52 65 78 85 73 68 54 59 76 88 98 99 97 98 97 98 84 82 81 76 72 73 67 71 73 68 65 60 61 63 64 58
32 29 26 28 21 24 23 22 20 31 40 47 53 56 54 57 64 71 82 87 91 79 85 96 98 96 97 98 96 97 94 90 81 82 80 80 80 70 66 65 66 63 59 55 57 55 59
31 29 30 30 24 24 21 21 21 32 45 54 57 61 58 57 59 66 81 86 93 88 92 92 88 96 92 92 97 94 92 88 85 74 72 73 83 73 63 59 50 43 38 43 45 46 45
31 27 28 29 27 22 29 23 25 35 47 57 62 67 64 55 58 63 71 77 79 80 78 84 87 86 83 84 86 80 78 69 68 70 64 64 62 57 58 51 39 31 33 29 30 35 43
31 28 31 27 22 27 32 23 24 38 50 60 65 72 68 56 56 56 57 67 75 79 88 85 81 81 76 72 67 63 62 58 58 55 54 53 46 46 48 43 39 31 36 37 36 36 41
31 32 32 25 29 32 32 25 30 43 56 64 70 78 72 61 53 45 49 61 67 76 84 86 82 84 78 71 66 60 58 59 69 62 53 54 51 62 60 54 36 32 47 48 44 39 49
32 30 30 29 32 32 30 25 32 42 58 68 74 83 77 67 56 51 48 57 67 78 77 82 79 76 72 70 65 67 66 64 61 63 58 59 62 55 57 55 51 44 49 48 47 32 44
32 34 32 29 32 34 25 22 31 42 61 72 81 88 83 72 57 58 51 53 60 70 74 79 78 76 75 73 73 75 70 64 63 60 65 70 66 63 64 57 44 48 51 50 49 51 50
35 35 31 30 31 36 31 22 29 47 64 78 91 88 88 74 68 64 62 50 50 56 67 69 70 73 80 79 78 81 77 74 71 69 69 66 69 72 65 66 62 62 62 66 72 69 58
34 36 31 33 43 35 32 23 29 50 68 85 96 90 84 78 74 69 64 56 51 46 53 58 64 71 76 78 76 79 78 76 72 69 71 76 80 77 76 79 76 77 81 77 73 66 66